EUTELSAT 7B

Last updated on Tue Sep 22 2026 00:03:12 GMT+0000 (Coordinated Universal Time)

1 39163U 13022A 26264.56351769 .00000101 00000+0 00000+0 0 9992 2 39163 0.0695 342.8380 0004544 122.7233 113.7859 1.00274518 48913
UTC large
Height (km)
Speed (km/s)
/
Latitude / Longitude
Inclination (degrees)
Orbital Period (minutes)
Azimuth
Elevation
Range (km)
Doppler Factor

Next 0 passes for location: London (51.5072 / 0.1276)

No passes found over London.
EUTELSAT 7B